OK4ZAW-16 Weather Reports


Display with metric or nautical units.
time (UTC)temp
F
wind
direction
speed
MPH
gust
MPH
rain 1hr
in
rain 24hr
in
rain mn
in
humidity
%
barometer
mb
20260504160119 61 0 2.0 4.0 0.00 0.00 0.00 97 1015.9
20260504150539 66 0 2.0 4.0 0.00 0.00 0.00 74 1016.1
20260504140955 69 0 2.0 4.0 0.00 0.00 0.00 62 1016.3
20260504140258 69 0 3.0 5.0 0.00 0.00 0.00 62 1016.4
20260504130716 66 0 2.0 4.0 0.00 0.00 0.00 74 1016.6
20260504110202 61 0 2.0 3.0 0.00 0.00 0.00 98 1017.0
20260504080811 56 0 3.0 4.0 0.00 0.00 0.00 10 1017.1
20260504050735 49 0 4.0 7.0 0.00 0.00 0.00 10 1016.6
20260504045343 49 0 4.0 7.0 0.00 0.00 0.00 10 1016.5
20260504044646 49 0 4.0 7.0 0.00 0.00 0.00 10 1016.4
20260504043950 49 0 4.0 10.0 0.00 0.00 0.00 10 1016.5
20260504043254 48 0 4.0 7.0 0.00 0.00 0.00 10 1016.6
20260504042558 48 0 5.0 8.0 0.00 0.00 0.00 10 1016.6
20260504041901 48 0 5.0 8.0 0.00 0.00 0.00 10 1016.7
20260504041205 48 0 4.0 6.0 0.00 0.00 0.00 10 1016.6
20260504035813 48 0 4.0 7.0 0.00 0.00 0.00 10 1016.7
20260504035116 47 0 4.0 7.0 0.00 0.00 0.00 10 1016.7
20260504034420 48 0 4.0 6.0 0.00 0.00 0.00 10 1016.7
20260504033724 48 0 4.0 8.0 0.00 0.00 0.00 10 1016.7
20260504033028 48 0 5.0 9.0 0.00 0.00 0.00 10 1016.7
20260504032332 48 0 4.0 7.0 0.00 0.00 0.00 10 1016.7
20260504031635 48 0 4.0 6.0 0.00 0.00 0.00 10 1016.8
20260504030939 48 0 4.0 8.0 0.00 0.00 0.00 10 1016.8
20260504030243 48 0 4.0 7.0 0.00 0.00 0.00 10 1016.8
20260504025547 48 0 4.0 7.0 0.00 0.00 0.00 10 1016.8
20260504024851 48 0 4.0 7.0 0.00 0.00 0.00 10 1016.8
20260504023458 48 0 4.0 6.0 0.00 0.00 0.00 10 1017.0
20260504022802 48 0 5.0 8.0 0.00 0.00 0.00 10 1016.9
20260504022106 48 0 5.0 8.0 0.00 0.00 0.00 10 1016.9
20260504021409 48 0 4.0 6.0 0.00 0.00 0.00 10 1016.5
20260504020713 48 0 4.0 6.0 0.00 0.00 0.00 10 1016.9
20260504020017 48 0 4.0 7.0 0.00 0.00 0.00 10 1016.9
20260504015321 48 0 4.0 6.0 0.00 0.00 0.00 10 1017.0
20260504014624 48 0 4.0 6.0 0.00 0.00 0.00 10 1017.0
20260504013928 48 0 4.0 7.0 0.00 0.00 0.00 10 1017.1
20260504013232 48 0 4.0 7.0 0.00 0.00 0.00 10 1017.0
20260504012536 49 0 5.0 7.0 0.00 0.00 0.00 10 1016.9
20260504011839 49 0 4.0 7.0 0.00 0.00 0.00 10 1016.9
20260504011143 49 0 5.0 7.0 0.00 0.00 0.00 10 1016.9
20260504010447 49 0 4.0 7.0 0.00 0.00 0.00 99 1017.0
20260504005750 49 0 5.0 9.0 0.00 0.00 0.00 97 1016.7
20260504005054 49 0 5.0 8.0 0.00 0.00 0.00 96 1016.9
20260504003701 49 0 5.0 0.0 0.00 0.00 0.00 95 1017.0
20260504003005 49 0 5.0 8.0 0.00 0.00 0.00 94 1016.9
20260504002309 49 0 5.0 8.0 0.00 0.00 0.00 94 1016.9
20260504001612 49 0 5.0 7.0 0.00 0.00 0.00 95 1017.1
20260504000916 49 0 5.0 7.0 0.00 0.00 0.00 95 1017.1
20260504000220 49 0 5.0 8.0 0.00 0.00 0.00 95 1017.0
20260503235523 49 0 4.0 7.0 0.00 0.00 0.00 95 1017.1
20260503233435 49 0 5.0 7.0 0.00 0.00 0.00 92 1017.2
20260503232738 49 0 5.0 8.0 0.00 0.00 0.00 92 1017.1
20260503232042 49 0 4.0 7.0 0.00 0.00 0.00 91 1017.2
20260503230649 49 0 4.0 6.0 0.00 0.00 0.00 91 1017.2
20260503225953 49 0 5.0 7.0 0.00 0.00 0.00 91 1017.2
20260503225256 49 0 5.0 7.0 0.00 0.00 0.00 91 1017.3
20260503224600 50 0 5.0 7.0 0.00 0.00 0.00 91 1017.2
20260503223904 50 0 5.0 10.0 0.00 0.00 0.00 91 1017.5
20260503223207 50 0 4.0 7.0 0.00 0.00 0.00 91 1017.3
20260503222511 50 0 5.0 11.0 0.00 0.00 0.00 90 1017.2
20260503221814 50 0 5.0 7.0 0.00 0.00 0.00 91 1017.3
20260503221118 50 0 5.0 8.0 0.00 0.00 0.00 91 1017.3
20260503220422 50 0 5.0 0.0 0.00 0.00 0.00 92 1017.3
20260503215725 50 0 4.0 7.0 0.00 0.00 0.00 93 1017.4
20260503215029 50 0 5.0 7.0 0.00 0.00 0.00 93 1017.7
20260503214332 50 0 4.0 8.0 0.00 0.00 0.00 94 1017.4
20260503213636 50 0 5.0 7.0 0.00 0.00 0.00 98 1017.6
20260503212939 50 0 5.0 6.0 0.00 0.00 0.00 10 1017.6
20260503212243 50 0 4.0 7.0 0.00 0.00 0.00 10 1017.7
20260503211547 50 0 4.0 8.0 0.00 0.00 0.00 10 1017.8
20260503210850 50 0 4.0 8.0 0.00 0.00 0.00 10 1017.7
20260503210154 50 0 4.0 6.0 0.00 0.00 0.00 10 1017.7
20260503205457 50 0 4.0 9.0 0.00 0.00 0.00 10 1017.8
20260503204801 50 0 4.0 7.0 0.00 0.00 0.00 10 1017.8
20260503204104 50 0 4.0 6.0 0.00 0.00 0.00 10 1017.8
20260503203408 51 0 4.0 6.0 0.00 0.00 0.00 10 1017.8
20260503202015 51 0 4.0 6.0 0.00 0.00 0.00 10 1017.8
20260503200622 51 0 5.0 7.0 0.00 0.00 0.00 98 1017.8
20260503195925 51 0 5.0 6.0 0.00 0.00 0.00 98 1017.9
20260503195229 51 0 4.0 7.0 0.00 0.00 0.00 98 1018.0
20260503194532 52 0 4.0 9.0 0.00 0.00 0.00 96 1018.0
20260503193836 52 0 4.0 7.0 0.00 0.00 0.00 94 1018.0
20260503193139 52 0 4.0 6.0 0.00 0.00 0.00 92 1018.0
20260503192442 52 0 4.0 7.0 0.00 0.00 0.00 91 1017.7
20260503191746 52 0 4.0 7.0 0.00 0.00 0.00 90 1017.9
20260503191049 52 0 4.0 5.0 0.00 0.00 0.00 88 1017.9
20260503190352 52 0 4.0 5.0 0.00 0.00 0.00 86 1017.8
20260503185656 53 0 4.0 7.0 0.00 0.00 0.00 83 1017.7
20260503184959 53 0 4.0 6.0 0.00 0.00 0.00 82 1017.7
20260503184303 53 0 4.0 6.0 0.00 0.00 0.00 81 1017.9
20260503183606 53 0 3.0 6.0 0.00 0.00 0.00 80 1017.8
20260503182909 53 0 4.0 6.0 0.00 0.00 0.00 79 1017.7
20260503182213 53 0 3.0 6.0 0.00 0.00 0.00 77 1017.6
20260503181516 54 0 3.0 5.0 0.00 0.00 0.00 74 1017.6
20260503180819 54 0 3.0 6.0 0.00 0.00 0.00 71 1017.6
20260503180122 54 0 4.0 7.0 0.00 0.00 0.00 69 1017.5
20260503175426 55 0 3.0 5.0 0.00 0.00 0.00 68 1017.6
20260503174729 55 0 3.0 5.0 0.00 0.00 0.00 67 1017.7
20260503174032 56 0 3.0 7.0 0.00 0.00 0.00 65 1017.7
20260503173335 56 0 3.0 5.0 0.00 0.00 0.00 63 1017.6
20260503172638 56 0 3.0 5.0 0.00 0.00 0.00 61 1017.5
20260503171941 57 0 3.0 5.0 0.00 0.00 0.00 63 1017.7
20260503171244 57 0 3.0 5.0 0.00 0.00 0.00 58 1017.7